This demonstration page uses our WeatherBlox Daily Observations layout. Learn more.

Left ArrowRight Arrow

Hourly Observations for May 1, 2017

Temp ( °F °C ) Dew Point ( °F °C ) Humidity (%) Winds ( mph kmh ) Pressure ( in mb ) Visibility ( mi km ) Precip ( " mm )
12:12 am 00:12 Cloudy with Light Rain 39 4 39 4 100 100 N 17 28 29.56 1001 1.75 2.816345 0 0
12:45 am 00:45 Cloudy with Light Rain 39 3.9 38 3.3 96 96 NNW 18 30 29.53 1000 3 4.82802 0.04 1.016
12:54 am 00:54 Cloudy with Light Rain 39 3.9 38 3.3 96 96 NNW 21 33 29.5 999 5 8.0467 0.04 1.016
1:54 am 01:54 Cloudy with Mist and Fog 37 2.8 36 2.2 96 96 NNW 20 31 29.5 999 4 6.43736 0.01 0.254
2:10 am 02:10 Cloudy with Light Rain 37 2.8 35 1.7 93 93 NNW 22 35 29.53 1000 2.5 4.02335 0 0.0254
2:21 am 02:21 Cloudy with Light Rain 37 2.8 35 1.7 93 93 NNW 25 41 29.53 1000 4 6.43736 0 0.0254
2:54 am 02:54 Cloudy 37 2.8 35 1.7 93 93 NNW 20 31 29.5 999 10 16.0934 0 0.0254
3:15 am 03:15 Windy with Snow Likely 36 2.2 35 1.7 97 97 NNW 20 31 29.56 1001 2 3.21868 0.01 0.254
3:34 am 03:34 Cloudy with Light Rain 36 2 36 2 100 100 NNW 17 28 29.56 1001 3 4.82802 0 0
3:43 am 03:43 Cloudy with Light Rain 36 2.2 35 1.7 97 97 NNW 20 31 29.56 1001 3 4.82802 0.01 0.254
3:54 am 03:54 Cloudy with Light Rain 36 2.2 35 1.7 97 97 NNW 18 30 29.51 999 4 6.43736 0.02 0.508
4:17 am 04:17 Cloudy with Light Rain 36 2 34 1 93 93 NNW 17 28 29.56 1001 5 8.0467 0 0
4:54 am 04:54 Cloudy with Light Rain 36 2.2 34 1.1 93 93 NNW 17 28 29.53 1000 10 16.0934 0.01 0.254
5:54 am 05:54 Cloudy 37 2.8 34 1.1 89 89 NNW 18 30 29.54 1000 10 16.0934 0 0.0254
6:54 am 06:54 Cloudy 37 2.8 34 1.1 89 89 NNW 15 24 29.56 1001 10 16.0934 0 0
7:54 am 07:54 Cloudy with Light Rain 37 2.8 34 1.1 89 89 NW 21 33 29.59 1002 10 16.0934 0 0.0254
8:28 am 08:28 Cloudy 37 3 34 1 87 87 NW 20 31 29.62 1003 10 16.0934 0 0
8:54 am 08:54 Cloudy 38 3.3 34 1.1 86 86 NW 24 39 29.61 1003 10 16.0934 0 0.0254
9:54 am 09:54 Cloudy 41 5 35 1.7 79 79 NW 28 44 29.63 1003 10 16.0934 0 0
10:54 am 10:54 Cloudy 41 5 35 1.7 79 79 NW 22 35 29.65 1004 10 16.0934 0 0
11:54 am 11:54 Cloudy 45 7.2 36 2.2 71 71 NW 20 31 29.67 1005 10 16.0934 0 0
12:54 pm 12:54 Cloudy 50 10 37 2.8 61 61 NNW 26 43 29.69 1006 10 16.0934 0 0
1:14 pm 13:14 Mostly Cloudy 52 11 37 3 58 58 NW 28 44 29.68 1005 10 16.0934 0 0
1:54 pm 13:54 Sunny 55 12.8 36 2.2 49 49 NW 21 33 29.7 1006 10 16.0934 0 0
2:54 pm 14:54 Sunny 59 15 36 2.2 42 42 NNW 26 43 29.72 1006 10 16.0934 0 0
3:54 pm 15:54 Sunny 59 15 31 -0.6 35 35 NNW 23 37 29.72 1007 10 16.0934 0 0
4:54 pm 16:54 Sunny 62 16.7 35 1.7 37 37 WNW 16 26 29.74 1007 10 16.0934 0 0
5:54 pm 17:54 Sunny 61 16.1 30 -1.1 31 31 NW 21 33 29.74 1007 10 16.0934 0 0
6:54 pm 18:54 Cloudy 43 6 39 4 87 87 NNE 21 33 29.56 1001 10 16.0934 0 0
7:54 pm 19:54 Sunny 59 15 34 1.1 39 39 NW 7 11 29.77 1008 10 16.0934 0 0
8:54 pm 20:54 Cloudy 56 13.3 36 2.2 47 47 W 3 6 29.78 1008 10 16.0934 0 0
9:54 pm 21:54 Clear 56 13.3 41 5 57 57 WNW 10 17 29.78 1009 10 16.0934 0 0
10:54 pm 22:54 Cloudy 56 13.3 42 5.6 60 60 WNW 12 19 29.79 1009 10 16.0934 0 0
11:54 pm 23:54 Mostly Clear 56 13.3 41 5 57 57 WNW 18 30 29.8 1009 10 16.0934 0 0

Powered by AerisWeather